McCook, NE

3:40 AM CDT on April 27, 2018 (GMT -0500)
McCook Municipal

Weather History for KMCK - June, 2014

Change the Weather History Date:

Thursday, June 26, 2014

  Actual Average Record
Temperature  
Mean Temperature 74 °F 74 °F  
Max Temperature 85 °F 88 °F 115 °F (2012)
Min Temperature 62 °F 59 °F 45 °F (1968)
Cooling Degree Days 8    
Growing Degree Days 23 (Base 50)    
Moisture  
Dew Point 63 °F    
Average Humidity 76    
Maximum Humidity 93    
Minimum Humidity 49    
Precipitation  
Precipitation 0.13 in 0.12 in 4.08 in (1985)
Month to date precipitation 6.80 2.96  
Year to date precipitation 11.76 10.90  
Sea Level Pressure  
Sea Level Pressure 29.79 in    
Wind  
Wind Speed 12 mph (SSE)    
Max Wind Speed 23 mph    
Max Gust Speed 33 mph    
Visibility 10 miles    
Events Rain , Thunderstorm    
T = Trace of Precipitation, MM = Missing Value Source: NWS Daily Summary

Daily Weather History Graph

Daily Weather History Graph

Search for Another Location

Airport or City:

Astronomy

Jun. 26, 2014 Rise Set
Actual Time 6:14 AM CDT 9:15 PM CDT
Civil Twilight 5:41 AM CDT 9:48 PM CDT
Nautical Twilight 4:59 AM CDT 10:30 PM CDT
Astronomical Twilight 4:10 AM CDT 11:19 PM CDT
Moon 5:55 AM CDT (6/26) 8:38 PM CDT (6/26)
Length of Visible Light 16h 07m
Length of Day
15h 01m
Waning Crescent, 0% of the Moon is Illuminated
Jun 26
Waning Crescent
Jun 27
New
Jul 5
First Quarter
Jul 12
Full
Jul 18
Last Quarter

Hourly Weather History & Observations

Time (CDT) Temp. Heat Index Dew Point Humidity Pressure Visibility Wind Dir Wind Speed Gust Speed Precip Events Conditions
12:02 AM 62.1 °F - 59.0 °F 90% 30.00 in 6.0 mi SW 11.5 mph - 0.03 in Rain , Thunderstorm Light Thunderstorms and Rain
12:23 AM 62.1 °F - 60.1 °F 93% 30.01 in 10.0 mi SW 12.7 mph - 0.03 in Rain , Thunderstorm Light Rain
12:53 AM 62.1 °F - 59.0 °F 90% 29.94 in 5.0 mi WSW 13.8 mph - 0.09 in Rain Light Rain
1:41 AM 62.1 °F - 59.0 °F 90% 29.97 in 8.0 mi West 17.3 mph 24.2 mph 0.07 in Rain , Thunderstorm Light Rain
1:53 AM 62.1 °F - 59.0 °F 90% 29.90 in 8.0 mi WSW 10.4 mph - 0.09 in Rain , Thunderstorm Light Thunderstorms and Rain
2:12 AM 62.1 °F - 60.1 °F 93% 29.96 in 10.0 mi SSW 9.2 mph - 0.01 in Rain Light Rain
2:53 AM 62.1 °F - 60.1 °F 93% 29.85 in 10.0 mi SSW 8.1 mph - 0.03 in Rain Light Rain
3:53 AM 63.0 °F - 60.1 °F 90% 29.80 in 10.0 mi NE 5.8 mph - 0.02 in   Partly Cloudy
4:53 AM 62.1 °F - 60.1 °F 93% 29.79 in 10.0 mi NE 12.7 mph - N/A   Clear
5:53 AM 62.1 °F - 60.1 °F 93% 29.84 in 10.0 mi SE 9.2 mph - N/A   Clear
6:53 AM 63.0 °F - 59.0 °F 87% 29.82 in 10.0 mi East 4.6 mph - N/A   Clear
7:53 AM 64.0 °F - 60.1 °F 87% 29.82 in 10.0 mi SE 4.6 mph - N/A   Clear
8:53 AM 66.9 °F - 62.1 °F 84% 29.82 in 10.0 mi SSW 4.6 mph - N/A   Clear
9:53 AM 70.0 °F - 62.1 °F 76% 29.80 in 10.0 mi SSE 6.9 mph - N/A   Clear
10:53 AM 73.9 °F - 62.1 °F 66% 29.79 in 10.0 mi South 9.2 mph - N/A   Clear
11:53 AM 77.0 °F - 64.0 °F 64% 29.80 in 10.0 mi South 11.5 mph - N/A   Clear
12:53 PM 80.1 °F 81.7 °F 64.0 °F 58% 29.79 in 10.0 mi SSE 11.5 mph - N/A   Clear
1:53 PM 80.1 °F 81.5 °F 63.0 °F 56% 29.79 in 10.0 mi ESE 17.3 mph - N/A   Clear
2:53 PM 80.1 °F 81.7 °F 64.0 °F 58% 29.76 in 10.0 mi SE 13.8 mph - N/A   Clear
3:53 PM 82.0 °F 83.8 °F 64.9 °F 56% 29.73 in 10.0 mi SE 16.1 mph - N/A   Clear
4:53 PM 82.9 °F 84.0 °F 63.0 °F 51% 29.71 in 10.0 mi South 16.1 mph 24.2 mph N/A   Clear
5:53 PM 84.9 °F 86.1 °F 64.0 °F 49% 29.68 in 10.0 mi SSE 17.3 mph 24.2 mph N/A   Clear
6:53 PM 84.0 °F 86.3 °F 66.0 °F 55% 29.65 in 10.0 mi SE 19.6 mph 25.3 mph N/A   Partly Cloudy
7:53 PM 82.0 °F 85.5 °F 69.1 °F 65% 29.64 in 10.0 mi SE 15.0 mph 25.3 mph N/A   Clear
8:53 PM 80.1 °F 83.2 °F 70.0 °F 71% 29.64 in 10.0 mi SE 17.3 mph - N/A   Clear
9:53 PM 78.1 °F - 70.0 °F 76% 29.65 in 10.0 mi SE 12.7 mph - N/A   Mostly Cloudy
10:53 PM 75.9 °F - 70.0 °F 82% 29.65 in 10.0 mi ESE 10.4 mph - N/A   Overcast
11:42 PM 75.9 °F - 70.0 °F 82% 29.70 in 10.0 mi SSE 20.7 mph 33.4 mph N/A   Scattered Clouds
11:53 PM 75.9 °F - 69.1 °F 79% 29.63 in 10.0 mi SSE 23.0 mph 33.4 mph N/A   Mostly Cloudy